Milford, UT

9:40 PM MDT on May 24, 2018 (GMT -0600)
Milford Municipal

Weather History for KMLF - January, 2014

Change the Weather History Date:

Friday, January 31, 2014

  Actual Average Record
Temperature  
Mean Temperature 32 °F -  
Max Temperature 35 °F 41 °F 64 °F (2003)
Min Temperature 28 °F 18 °F 1 °F (2002)
Degree Days  
Heating Degree Days 34    
Moisture  
Dew Point 28 °F    
Average Humidity 94    
Maximum Humidity 100    
Minimum Humidity 75    
Precipitation  
Precipitation 0.01 in - - ()
Sea Level Pressure  
Sea Level Pressure 29.78 in    
Wind  
Wind Speed 5 mph (North)    
Max Wind Speed 16 mph    
Max Gust Speed -    
Visibility 5 miles    
Events Fog , Snow    
Averages and records for this station are not official NWS values.
T = Trace of Precipitation, MM = Missing Value Source: NWS Daily Summary

Daily Weather History Graph

Daily Weather History Graph

Search for Another Location

Airport or City:

Astronomy

Jan. 31, 2014 Rise Set
Actual Time 7:38 AM MST 5:53 PM MST
Civil Twilight 7:10 AM MST 6:21 PM MST
Nautical Twilight 6:38 AM MST 6:53 PM MST
Astronomical Twilight 6:07 AM MST 7:24 PM MST
Moon 7:52 AM MST (1/31) 7:20 PM MST (1/31)
Length of Visible Light 11h 11m
Length of Day
10h 15m
New Moon, 1% of the Moon is Illuminated
Jan 31
New Moon
Feb 6
First Quarter
Feb 14
Full
Feb 22
Last Quarter
Mar 1
New

Hourly Weather History & Observations

Time (MST) Temp. Windchill Dew Point Humidity Pressure Visibility Wind Dir Wind Speed Gust Speed Precip Events Conditions
12:36 AM 27.0 °F - 26.1 °F 96% 29.77 in 1.0 mi Calm Calm - N/A   Overcast
12:41 AM 27.0 °F - 27.0 °F 100% 29.76 in 0.8 mi Calm Calm - N/A   Overcast
12:52 AM 27.0 °F - 27.0 °F 100% 29.79 in 1.0 mi Calm Calm - N/A   Overcast
1:05 AM 27.0 °F 23.0 °F 26.1 °F 96% 29.75 in 0.8 mi North 3.5 mph - N/A   Overcast
1:52 AM 27.0 °F - 26.1 °F 96% 29.78 in 1.2 mi Calm Calm - N/A   Overcast
1:54 AM 27.0 °F 23.0 °F 26.1 °F 96% 29.75 in 2.5 mi South 3.5 mph - N/A   Overcast
1:59 AM 26.1 °F - 25.0 °F 96% 29.75 in 8.0 mi Calm Calm - N/A   Overcast
2:52 AM 26.1 °F - 24.1 °F 92% 29.78 in 10.0 mi Calm Calm - N/A   Overcast
3:52 AM 28.0 °F 24.2 °F 27.0 °F 96% 29.77 in 1.2 mi WNW 3.5 mph - N/A   Overcast
4:05 AM 28.0 °F 24.2 °F 27.0 °F 96% 29.73 in 2.0 mi WNW 3.5 mph - N/A   Overcast
4:12 AM 28.0 °F 24.2 °F 27.0 °F 96% 29.72 in 6.0 mi NW 3.5 mph - N/A   Overcast
4:52 AM 28.9 °F 22.8 °F 28.0 °F 96% 29.75 in 10.0 mi NW 5.8 mph - N/A   Overcast
5:15 AM 28.9 °F 23.9 °F 28.9 °F 100% 29.72 in 10.0 mi NNW 4.6 mph - N/A   Overcast
5:22 AM 28.9 °F 23.9 °F 28.9 °F 100% 29.72 in 10.0 mi North 4.6 mph - N/A   Overcast
5:40 AM 28.9 °F 25.2 °F 28.9 °F 100% 29.72 in 1.8 mi North 3.5 mph - N/A   Overcast
5:42 AM 28.9 °F 25.2 °F 28.9 °F 100% 29.72 in 1.2 mi North 3.5 mph - N/A   Overcast
5:49 AM 28.4 °F 24.6 °F 28.4 °F 100% 29.72 in 0.8 mi North 3.5 mph - N/A   Overcast
5:52 AM 28.9 °F 23.9 °F 28.9 °F 100% 29.75 in 0.5 mi North 4.6 mph - N/A Fog Light Freezing Fog
6:07 AM 28.9 °F 21.9 °F 28.0 °F 96% 29.72 in 0.8 mi NNE 6.9 mph - N/A   Overcast
6:13 AM 28.9 °F 21.9 °F 28.0 °F 96% 29.72 in 1.0 mi North 6.9 mph - N/A   Overcast
6:23 AM 28.9 °F 22.8 °F 28.0 °F 96% 29.71 in 1.2 mi NNE 5.8 mph - N/A   Overcast
6:38 AM 28.9 °F 21.9 °F 28.0 °F 96% 29.71 in 1.8 mi NNE 6.9 mph - N/A   Overcast
6:41 AM 28.9 °F 23.9 °F 28.0 °F 96% 29.72 in 3.0 mi NNE 4.6 mph - N/A   Overcast
6:47 AM 28.9 °F 22.8 °F 28.9 °F 100% 29.71 in 6.0 mi NNE 5.8 mph - N/A   Overcast
6:52 AM 28.9 °F 23.9 °F 28.9 °F 100% 29.75 in 8.0 mi NE 4.6 mph - N/A   Overcast
7:00 AM 28.9 °F 23.9 °F 28.9 °F 100% 29.72 in 3.0 mi NE 4.6 mph - N/A   Overcast
7:06 AM 28.9 °F 22.8 °F 28.9 °F 100% 29.72 in 2.0 mi NNE 5.8 mph - N/A   Overcast
7:45 AM 28.9 °F 23.9 °F 28.9 °F 100% 29.74 in 4.0 mi NNW 4.6 mph - N/A   Overcast
7:52 AM 28.9 °F 25.2 °F 28.9 °F 100% 29.77 in 2.5 mi North 3.5 mph - N/A   Overcast
8:16 AM 28.9 °F 25.2 °F 28.0 °F 96% 29.74 in 3.0 mi North 3.5 mph - 0.00 in   Overcast
8:24 AM 28.9 °F 23.9 °F 28.0 °F 96% 29.74 in 2.5 mi North 4.6 mph - 0.00 in Snow Light Snow
8:35 AM 28.9 °F 23.9 °F 28.0 °F 96% 29.75 in 3.0 mi North 4.6 mph - 0.00 in Snow Light Snow
8:52 AM 28.9 °F 22.8 °F 28.0 °F 96% 29.80 in 2.5 mi North 5.8 mph - 0.00 in Snow Light Snow
9:00 AM 28.9 °F 23.9 °F 28.0 °F 96% 29.76 in 1.5 mi NE 4.6 mph - 0.00 in Snow Light Snow
9:06 AM 28.9 °F 23.9 °F 28.9 °F 100% 29.76 in 1.0 mi ENE 4.6 mph - 0.01 in Snow Light Snow
9:39 AM 28.9 °F 22.8 °F 28.9 °F 100% 29.77 in 1.5 mi NE 5.8 mph - 0.01 in Snow Light Snow
9:41 AM 30.0 °F 25.2 °F 28.9 °F 96% 29.77 in 2.0 mi NE 4.6 mph - 0.01 in Snow Light Snow
9:50 AM 30.2 °F 25.4 °F 28.4 °F 93% 29.77 in 3.0 mi NE 4.6 mph - 0.01 in Snow Light Snow
9:52 AM 30.0 °F 25.2 °F 28.9 °F 96% 29.81 in 3.0 mi NNE 4.6 mph - 0.01 in Snow Light Snow
10:08 AM 30.0 °F 26.5 °F 28.9 °F 96% 29.78 in 4.0 mi NE 3.5 mph - 0.00 in Snow Light Snow
10:16 AM 30.0 °F 25.2 °F 28.9 °F 96% 29.78 in 4.0 mi NE 4.6 mph - 0.00 in Snow Light Snow
10:52 AM 30.9 °F 26.2 °F 30.0 °F 96% 29.83 in 3.0 mi NNE 4.6 mph - 0.00 in Snow Light Snow
10:59 AM 30.9 °F 24.3 °F 30.0 °F 96% 29.79 in 4.0 mi NNE 6.9 mph - 0.00 in Snow Light Snow
11:18 AM 30.9 °F 22.8 °F 30.0 °F 96% 29.79 in 5.0 mi North 9.2 mph - 0.00 in Snow Light Snow
11:38 AM 32.0 °F 23.6 °F 30.0 °F 92% 29.79 in 4.0 mi North 10.4 mph - 0.00 in Snow Light Snow
11:45 AM 32.0 °F 24.8 °F 30.0 °F 92% 29.79 in 4.0 mi North 8.1 mph - 0.00 in Snow Light Snow
11:52 AM 32.0 °F 24.8 °F 30.9 °F 96% 29.82 in 5.0 mi North 8.1 mph - 0.00 in Snow Light Snow
12:01 PM 32.0 °F 24.2 °F 30.0 °F 92% 29.78 in 8.0 mi NNE 9.2 mph - 0.00 in Snow Light Snow
12:43 PM 33.1 °F 26.9 °F 30.0 °F 89% 29.76 in 10.0 mi North 6.9 mph - 0.00 in   Overcast
12:52 PM 33.1 °F 26.1 °F 30.0 °F 89% 29.80 in 10.0 mi North 8.1 mph - 0.00 in   Overcast
1:23 PM 33.1 °F 24.9 °F 30.0 °F 89% 29.76 in 10.0 mi North 10.4 mph - N/A   Overcast
1:30 PM 33.1 °F 23.9 °F 30.0 °F 89% 29.76 in 10.0 mi North 12.7 mph - N/A   Overcast
1:52 PM 34.0 °F 26.0 °F 28.9 °F 82% 29.79 in 10.0 mi North 10.4 mph - N/A   Overcast
2:52 PM 34.0 °F 25.5 °F 30.0 °F 85% 29.81 in 10.0 mi NNE 11.5 mph - N/A   Overcast
3:00 PM 34.0 °F 26.6 °F 30.0 °F 85% 29.77 in 10.0 mi NNE 9.2 mph - N/A   Overcast
3:32 PM 34.0 °F 27.2 °F 28.9 °F 82% 29.77 in 10.0 mi NNE 8.1 mph - N/A   Overcast
3:52 PM 34.0 °F 26.0 °F 28.9 °F 82% 29.81 in 10.0 mi North 10.4 mph - N/A   Overcast
4:00 PM 33.1 °F 24.9 °F 28.9 °F 85% 29.77 in 10.0 mi North 10.4 mph - N/A   Overcast
4:13 PM 33.1 °F 25.5 °F 28.9 °F 85% 29.77 in 10.0 mi North 9.2 mph - N/A   Overcast
4:52 PM 33.1 °F 25.5 °F 28.9 °F 85% 29.81 in 10.0 mi North 9.2 mph - N/A   Mostly Cloudy
5:52 PM 32.0 °F 24.2 °F 27.0 °F 82% 29.83 in 10.0 mi North 9.2 mph - N/A   Mostly Cloudy
6:52 PM 28.9 °F 20.4 °F 27.0 °F 92% 29.86 in 10.0 mi NNW 9.2 mph - N/A   Mostly Cloudy
7:52 PM 28.9 °F 20.4 °F 27.0 °F 92% 29.86 in 10.0 mi NNW 9.2 mph - N/A   Overcast
8:52 PM 30.0 °F 20.5 °F 27.0 °F 88% 29.86 in 10.0 mi North 11.5 mph - N/A   Overcast
9:52 PM 28.0 °F 18.1 °F 27.0 °F 96% 29.88 in 8.0 mi NNW 11.5 mph - 0.00 in Snow Light Snow
10:00 PM 28.0 °F 18.6 °F 27.0 °F 96% 29.84 in 9.0 mi North 10.4 mph - 0.00 in   Mostly Cloudy
10:27 PM 28.9 °F 19.8 °F 27.0 °F 92% 29.84 in 6.0 mi NNW 10.4 mph - 0.00 in Snow Light Snow
10:46 PM 28.9 °F 21.1 °F 27.0 °F 92% 29.85 in 8.0 mi North 8.1 mph - 0.01 in Snow Light Snow
10:52 PM 28.9 °F 20.4 °F 28.0 °F 96% 29.89 in 6.0 mi North 9.2 mph - 0.01 in Snow Light Snow
11:35 PM 28.9 °F 18.6 °F 27.0 °F 92% 29.86 in 1.8 mi North 12.7 mph - 0.01 in Snow Light Snow
11:38 PM 28.9 °F 18.6 °F 27.0 °F 92% 29.86 in 1.5 mi North 12.7 mph - 0.01 in Snow Light Snow
11:43 PM 28.0 °F 17.5 °F 27.0 °F 96% 29.86 in 1.0 mi North 12.7 mph - 0.01 in Snow Light Snow
11:52 PM 28.0 °F 16.1 °F 27.0 °F 96% 29.90 in 0.5 mi North 16.1 mph - 0.02 in Fog , Snow Snow